Location: *
(33.8649°S, 62.1526°E)
Time: 12:34:03
(UTC+00:00)

Sich 1 Rocket - Pass Details

Date: 17 January 2021
Orbit: 615 x 653 km, 82.5° (Epoch: 02 March)

Event Time Altitude Azimuth Distance (km) Brightness Sun altitude
Rises 22:41:25 0° 184° (S) 2,930 7.7 -23.6°
Reaches altitude 10° 22:43:40 10° 181° (S) 2,019 6.8 -23.3°
Maximum altitude 22:48:07 69° 98° (E) 678 3.8 -22.7°
Enters shadow 22:49:37 41° 27° (NNE) 927 4.2 -22.5°
